EDT,Max TemperatureF,Mean TemperatureF,Min TemperatureF,Max Dew PointF,MeanDew PointF,Min DewpointF,Max Humidity, Mean Humidity, Min Humidity, Max Sea Level PressureIn, Mean Sea Level PressureIn, Min Sea Level PressureIn, Max VisibilityMiles, Mean VisibilityMiles, Min VisibilityMiles, Max Wind SpeedMPH, Mean Wind SpeedMPH, Max Gust SpeedMPH,PrecipitationIn, CloudCover, Events, WindDirDegrees
2013-6-1,93,80,70,67,63,57,76,53,31,29.98,29.92,29.86,10,10,10,13,7,21,0.00,0,Thunderstorm,247
2013-6-2,91,82,69,70,65,58,90,64,33,29.87,29.80,29.73,10,10,7,22,6,29,0.04,1,Rain-Thunderstorm,202
2013-6-3,79,70,59,66,61,40,94,77,46,29.86,29.83,29.78,10,9,2,13,4,18,0.28,5,Rain,199
2013-6-4,73,62,50,48,42,38,83,51,34,30.12,29.96,29.86,10,10,2,15,11,24,0.00,1,,313
2013-6-5,75,62,48,49,45,40,90,55,29,30.20,30.15,30.10,10,10,10,8,3,17,0.00,0,,295
2013-6-6,73,64,54,55,47,43,90,56,35,30.20,30.15,30.12,10,10,8,13,5,20,0.04,1,Rain,159
2013-6-7,57,55,53,55,53,50,94,91,86,30.11,30.02,29.86,10,7,2,10,4,16,1.44,8,Rain,51
2013-6-8,78,64,51,60,55,50,100,81,54,30.02,29.80,29.67,10,8,2,16,8,24,0.88,6,Rain,325
2013-6-9,80,68,57,57,54,51,90,63,38,30.18,30.11,30.04,10,10,10,14,6,22,0.00,1,,308
2013-6-10,70,62,55,61,57,53,94,83,61,30.21,30.13,30.02,10,8,2,9,4,,0.88,5,Rain,107
2013-6-11,62,58,55,57,56,53,97,91,80,29.99,29.74,29.60,10,5,1,9,5,,1.03,8,Rain,44
2013-6-12,71,64,57,56,53,51,94,75,51,29.84,29.67,29.58,10,9,2,22,6,34,0.05,6,Rain,322
2013-6-13,64,58,52,57,53,49,94,86,63,29.83,29.77,29.72,10,7,2,8,3,,0.82,6,Rain,113
2013-6-14,77,64,52,59,52,47,94,77,36,29.80,29.73,29.68,10,9,7,9,5,,0.56,6,Rain,358
2013-6-15,79,68,55,52,46,38,84,50,24,29.96,29.90,29.81,10,10,10,15,7,22,0.00,0,,315
2013-6-16,77,66,57,59,51,45,70,55,42,29.95,29.85,29.72,10,10,10,12,6,24,0.00,3,,254
2013-6-17,84,73,62,64,60,56,93,73,38,29.91,29.85,29.80,10,9,1,17,7,36,0.83,3,Rain-Thunderstorm,299
2013-6-18,72,65,59,63,59,56,100,86,69,29.96,29.94,29.90,10,9,1,9,4,16,0.66,6,Rain,21
2013-6-19,77,64,53,56,50,42,96,64,32,30.17,30.02,29.94,10,10,10,9,2,,0.00,2,Rain,334
2013-6-20,73,60,48,50,48,44,93,70,34,30.27,30.24,30.19,10,10,10,6,2,,0.00,0,,341
2013-6-21,84,76,66,62,55,48,84,48,28,30.25,30.22,30.20,10,10,10,13,7,21,0.00,1,,261
2013-6-22,84,73,62,61,59,58,87,61,41,30.23,30.18,30.12,10,10,10,12,5,20,0.00,0,,225
2013-6-23,91,80,69,69,64,58,74,60,48,30.16,30.08,30.00,10,10,10,15,5,21,0.00,2,Rain,229
2013-6-24,93,82,72,70,68,63,91,66,45,30.02,29.96,29.89,10,10,8,14,5,25,0.09,1,Rain-Thunderstorm,285
2013-6-25,91,80,70,69,66,63,84,63,45,29.94,29.85,29.73,10,10,10,13,5,17,0.00,1,,270
2013-6-26,84,77,70,70,68,66,90,78,55,29.87,29.81,29.75,10,10,2,10,4,,0.10,4,Rain,314
2013-6-27,72,68,64,67,65,63,100,92,81,29.88,29.83,29.77,10,4,1,7,3,,0.05,8,Rain,79
2013-6-28,81,70,59,71,64,57,97,89,71,29.77,29.58,29.49,10,6,2,13,3,23,0.78,7,Rain-Thunderstorm,126
2013-6-29,84,76,69,70,67,64,94,78,53,29.73,29.58,29.52,10,9,4,16,7,23,0.00,4,Rain,172
2013-6-30,87,76,66,70,67,65,93,74,49,29.94,29.83,29.73,10,10,6,13,5,23,0.00,2,,172